Regional Weather Roundup
Issued by NWS

Home | Current Version | Previous Version | Text Only | Print | Product List | Glossary On
Versions: 1 2 3 4 5 6 7 8 9 10 11 12 13 14 15 16 17 18 19 20 21 22 23 24 25 26 27 28 29 30 31 32 33 34 35 36 37 38 39 40 41 42 43 44 45 46 47 48 49 50
000
ASPQ40 PGUM 050514
RWRPQ
WEATHER ROUNDUP FOR THE MARIANAS AND MICRONESIA
NATIONAL WEATHER SERVICE TIYAN GU
300 PM CHST WED AUG 05 2015

GUZ001>004-050600-
MARIANA ISLANDS-

CITY           SKY/WX    TMP DP  RH WIND       PRES   REMARKS
GUAM AIRPORT   HVY RAIN  75  73  94 SW22G37   29.70R VSB 1/2
ANDERSEN AFB   LGT RAIN  79  77  94 SW9       29.67F
ROTA AIRPORT   NOT AVBL
TINIAN AP      NOT AVBL
SAIPAN AP      NOT AVBL

$$

PMZ161-050600-
REPUBLIC OF PALAU-

CITY           SKY/WX    TMP DP  RH WIND       PRES   REMARKS
KOROR AP       CLOUDY    86  75  70 SW17G28   29.69F HX  95
KOROR WSO      CLOUDY    86  73  66 W6G26     29.70F HX  93

$$

PMZ171>174-050600-
FEDERATED STATES OF MICRONESIA-

CITY           SKY/WX    TMP DP  RH WIND       PRES   REMARKS
YAP AIRPORT    LGT RAIN  81  75  83 W12       29.66F
CHUUK AP       CLOUDY    86  77  74 VRB3      29.76S HX  97
POHNPEI AP     NOT AVBL
POHNPEI WSO    CLOUDY    81  75  83 W3        29.79F
KOSRAE AP      NOT AVBL

$$

PMZ181-050600-
REPUBLIC OF THE MARSHALL ISLANDS-

CITY           SKY/WX    TMP DP  RH WIND       PRES   REMARKS
KWAJALEIN AP   MOSUNNY   88  75  66 NE10      29.72S HX  97
MAJURO AP      NOT AVBL
MAJURO WSO     MOSUNNY   88  77  70 E6        29.71R HX 100

$$




USA.gov is the U.S. government's official web portal to all federal, state and local government web resources and services.